This demonstration page uses our WeatherBlox Daily Observations layout. Learn more.

Left ArrowRight Arrow

36.19886, -115.1175

Hourly Observations for October 18, 2020

Temp ( °F °C ) Dew Point ( °F °C ) Humidity (%) Winds ( mph kmh ) Pressure ( in mb ) Visibility ( mi km ) Precip ( " mm )
12:53 am 00:53 Clear 68 20 25 -3.9 20 20 NW 5 7 29.92 1013 10 16 0.00 0.00
1:53 am 01:53 Clear 67 19.4 26 -3.3 21 21 WNW 6 9 29.92 1013 10 16 0.00 0.00
2:53 am 02:53 Clear 69 20.6 25 -3.9 19 19 NE 3 6 29.92 1013 10 16 0.00 0.00
3:53 am 03:53 Clear 65 18.3 26 -3.3 23 23 Calm 29.93 1013 10 16 0.00 0.00
4:53 am 04:53 Clear 65 18.3 26 -3.3 23 23 VRB 5 7 29.93 1014 10 16 0.00 0.00
5:53 am 05:53 Clear 64 17.8 26 -3.3 24 24 NW 5 7 29.94 1014 10 16 0.00 0.00
6:53 am 06:53 Sunny 65 18.3 27 -2.8 24 24 Calm 29.95 1014 10 16 0.00 0.00
7:53 am 07:53 Sunny 68 20 25 -3.9 20 20 NNW 7 11 29.97 1015 10 16 0.00 0.00
8:53 am 08:53 Sunny 74 23.3 22 -5.6 14 14 Calm 29.98 1015 10 16 0.00 0.00
9:53 am 09:53 Sunny 78 25.6 24 -4.4 13 13 Calm 29.98 1015 10 16 0.00 0.00
10:53 am 10:53 Sunny 82 27.8 22 -5.6 11 11 ESE 5 7 29.98 1015 10 16 0.00 0.00
11:53 am 11:53 Sunny 84 28.9 22 -5.6 10 10 VRB 5 7 29.97 1015 10 16 0.00 0.00
12:53 pm 12:53 Sunny 87 30.6 22 -5.6 9 9 Calm 29.95 1014 10 16 0.00 0.00
1:53 pm 13:53 Sunny 89 31.7 23 -5 9 9 E 6 9 29.92 1013 10 16 0.00 0.00
2:53 pm 14:53 Sunny 90 32.2 23 -5 9 9 ESE 5 7 29.89 1012 10 16 0.00 0.00
3:53 pm 15:53 Sunny 91 32.8 25 -3.9 9 9 S 7 11 29.87 1012 10 16 0.00 0.00
4:53 pm 16:53 Sunny 91 32.8 25 -3.9 9 9 SE 5 7 29.87 1012 10 16 0.00 0.00
5:53 pm 17:53 Sunny 87 30.6 25 -3.9 10 10 E 6 9 29.87 1012 10 16 0.00 0.00
6:53 pm 18:53 Clear 83 28.3 24 -4.4 11 11 NNE 5 7 29.88 1012 10 16 0.00 0.00
7:53 pm 19:53 Clear 81 27.2 25 -3.9 13 13 WNW 5 7 29.89 1012 10 16 0.00 0.00
8:53 pm 20:53 Clear 77 25 29 -1.7 17 17 WNW 7 11 29.89 1012 10 16 0.00 0.00
9:53 pm 21:53 Clear 75 23.9 28 -2.2 18 18 NW 6 9 29.91 1013 10 16 0.00 0.00
10:53 pm 22:53 Clear 72 22.2 28 -2.2 19 19 Calm 29.91 1013 10 16 0.00 0.00
11:53 pm 23:53 Clear 72 22.2 28 -2.2 19 19 NW 6 9 29.91 1013 10 16 0.00 0.00

Powered by AerisWeather